Weather History for Worcester, MA

Change the Weather History Date:

Tuesday, September 4, 2012

  Actual Average Record
Temperature  
Mean Temperature 67 °F 65 °F  
Max Temperature 72 °F 74 °F 90 °F (1953)
Min Temperature 61 °F 57 °F 39 °F (1945)
Degree Days  
Heating Degree Days 0 2  
Month to date heating degree days 0 8  
Since 1 July heating degree days 2 47  
Cooling Degree Days 2 3  
Month to date cooling degree days 12 12  
Year to date cooling degree days 643 438  
Growing Degree Days 16 (Base 50)    
Moisture  
Dew Point 65 °F    
Average Humidity 86    
Maximum Humidity 100    
Minimum Humidity 72    
Precipitation  
Precipitation 0.63 in 0.12 in 2.10 in (1988)
Month to date precipitation 0.63 0.46  
Year to date precipitation 29.25 31.82  
Snow  
Snow 0.00 in 0.00 in 0.00 in (2002)
Month to date snowfall 0.0 0.0  
Since 1 July snowfall 0.0 0.0  
Since 1 September snowfall 0.0 0.0  
Snow Depth 0.00 in    
Sea Level Pressure  
Sea Level Pressure 30.04 in    
Wind  
Wind Speed 6 mph (SSE)    
Max Wind Speed 13 mph    
Max Gust Speed 20 mph    
Visibility 5 miles    
Events Fog , Rain    
T = Trace of Precipitation, MM = Missing Value Source: NWS Daily Summary

Daily Weather History Graph

Daily Weather History Graph

Search for Another Location

Airport:

Trip Planner

Search our weather history database for the weather conditions in past years. The results will help you decide how hot, cold, wet, or windy it might be!

Date:

Astronomy

Sep. 04, 2012 Rise Set
Actual Time 6:16 AM EDT 7:15 PM EDT
Civil Twilight 5:47 AM EDT 7:44 PM EDT
Nautical Twilight 5:13 AM EDT 8:18 PM EDT
Astronomical Twilight 4:37 AM EDT 8:53 PM EDT
Moon 9:00 PM EDT (9/4) 10:26 AM EDT (9/4)
Length of Visible Light 13h 56m
Length of Day
12h 59m
Waning Gibbous, 84% of the Moon is Illuminated
Sep 4
Waning Gibbous
Sep 8
Last Quarter
Sep 15
New
Sep 22
First Quarter
Sep 29
Full

Hourly Weather History & Observations

Time (EDT) Temp. Dew Point Humidity Pressure Visibility Wind Dir Wind Speed Gust Speed Precip Events Conditions
12:54 AM 63.0 °F 53.1 °F 70% 30.17 in 10.0 mi SSW 5.8 mph - N/A   Overcast
1:54 AM 63.0 °F 54.0 °F 72% 30.16 in 10.0 mi SSW 3.5 mph - 0.00 in   Overcast
2:54 AM 61.0 °F 57.0 °F 87% 30.15 in 10.0 mi SSW 6.9 mph - 0.00 in   Overcast
3:54 AM 62.1 °F 57.9 °F 86% 30.13 in 10.0 mi South 6.9 mph - 0.00 in   Overcast
4:54 AM 62.1 °F 60.1 °F 93% 30.12 in 10.0 mi South 6.9 mph - N/A   Overcast
5:33 AM 62.6 °F 60.8 °F 94% 30.12 in 10.0 mi South 5.8 mph - N/A   Overcast
5:43 AM 62.6 °F 60.8 °F 94% 30.12 in 10.0 mi SSE 6.9 mph - N/A   Overcast
5:54 AM 63.0 °F 60.1 °F 90% 30.12 in 10.0 mi South 5.8 mph - N/A   Overcast
6:54 AM 63.0 °F 61.0 °F 93% 30.13 in 10.0 mi Calm Calm - 0.00 in   Overcast
7:10 AM 62.6 °F 60.8 °F 94% 30.13 in 10.0 mi Calm Calm - N/A   Overcast
7:40 AM 62.6 °F 60.8 °F 94% 30.13 in 10.0 mi ESE 3.5 mph - N/A   Overcast
7:54 AM 64.0 °F 60.1 °F 87% 30.12 in 10.0 mi SE 5.8 mph - N/A   Overcast
8:44 AM 64.4 °F 60.8 °F 88% 30.11 in 10.0 mi SE 6.9 mph - N/A   Overcast
8:54 AM 64.9 °F 61.0 °F 87% 30.11 in 10.0 mi ESE 4.6 mph - N/A   Overcast
9:41 AM 64.4 °F 62.6 °F 94% 30.10 in 10.0 mi SE 6.9 mph - N/A   Overcast
9:54 AM 64.9 °F 62.1 °F 90% 30.10 in 10.0 mi SE 5.8 mph - N/A   Overcast
10:54 AM 66.0 °F 64.0 °F 93% 30.09 in 7.0 mi SSE 9.2 mph - 0.01 in Rain Light Rain
11:54 AM 66.0 °F 64.9 °F 96% 30.09 in 10.0 mi SSE 5.8 mph - 0.00 in Rain Light Rain
12:54 PM 66.9 °F 64.9 °F 93% 30.06 in 2.0 mi ESE 4.6 mph - 0.00 in   Overcast
1:01 PM 66.2 °F 64.4 °F 94% 30.06 in 1.0 mi SE 4.6 mph - N/A   Overcast
1:54 PM 68.0 °F 66.0 °F 93% 30.04 in 1.0 mi ESE 3.5 mph - N/A   Overcast
2:01 PM 68.0 °F 66.2 °F 94% 30.04 in 2.0 mi ESE 3.5 mph - N/A   Overcast
2:16 PM 68.0 °F 66.2 °F 94% 30.04 in 1.0 mi ESE 4.6 mph - N/A   Overcast
2:31 PM 68.0 °F 66.2 °F 94% 30.03 in 0.2 mi ESE 3.5 mph - N/A Fog Fog
2:52 PM 69.8 °F 68.0 °F 94% 30.02 in 0.2 mi Calm Calm - 0.00 in Fog , Rain Light Rain
2:54 PM 69.1 °F 68.0 °F 96% 30.01 in 0.2 mi East 4.6 mph - 0.00 in Fog , Rain Light Rain
2:59 PM 69.8 °F 68.0 °F 94% 30.02 in 0.5 mi Calm Calm - 0.00 in Fog , Rain Light Rain
3:15 PM 69.8 °F 68.0 °F 94% 30.01 in 0.2 mi Calm Calm - 0.00 in Fog Fog
3:38 PM 69.8 °F 68.0 °F 94% 30.00 in 1.5 mi SE 3.5 mph - 0.00 in Rain Light Rain
3:47 PM 69.8 °F 69.8 °F 100% 30.00 in 3.0 mi SE 3.5 mph - 0.00 in Rain Light Rain
3:54 PM 70.0 °F 69.1 °F 97% 29.99 in 2.5 mi SE 3.5 mph - 0.00 in Rain Light Rain
4:04 PM 69.8 °F 69.8 °F 100% 29.99 in 4.0 mi Calm Calm - 0.01 in Rain Light Rain
4:17 PM 69.8 °F 68.0 °F 94% 29.99 in 1.0 mi Calm Calm - 0.02 in Rain Light Rain
4:54 PM 70.0 °F 69.1 °F 97% 29.98 in 1.0 mi Calm Calm - 0.13 in Rain Light Rain
5:49 PM 71.6 °F 69.8 °F 94% 29.98 in 3.0 mi SSE 3.5 mph - 0.01 in   Overcast
5:54 PM 71.1 °F 70.0 °F 96% 29.97 in 3.0 mi SSE 3.5 mph - 0.01 in   Overcast
6:22 PM 71.6 °F 69.8 °F 94% 29.97 in 0.8 mi SW 8.1 mph - 0.13 in Rain Heavy Rain
6:28 PM 71.6 °F 69.8 °F 94% 29.97 in 1.0 mi SW 6.9 mph - 0.22 in Rain Heavy Rain
6:54 PM 71.1 °F 70.0 °F 96% 29.96 in 1.0 mi WNW 5.8 mph - 0.46 in Rain Heavy Rain
7:03 PM 71.6 °F 69.8 °F 94% 29.97 in 0.5 mi SW 8.1 mph - 0.02 in Rain Light Rain
7:36 PM 71.6 °F 69.8 °F 94% 29.96 in 0.5 mi SSW 4.6 mph - 0.02 in   Overcast
7:54 PM 71.1 °F 70.0 °F 96% 29.95 in 0.5 mi South 3.5 mph - 0.02 in   Overcast
8:10 PM 71.6 °F 69.8 °F 94% 29.96 in 8.0 mi South 8.1 mph - N/A   Overcast
8:54 PM 71.1 °F 70.0 °F 96% 29.95 in 9.0 mi SSW 10.4 mph - 0.00 in   Overcast
9:54 PM 71.1 °F 70.0 °F 96% 29.94 in 8.0 mi SSW 9.2 mph - N/A   Overcast
10:54 PM 71.1 °F 70.0 °F 96% 29.91 in 7.0 mi SSW 10.4 mph - N/A   Overcast
11:54 PM 72.0 °F 70.0 °F 93% 29.89 in 6.0 mi SSW 10.4 mph - N/A   Overcast